Regional Weather Roundup
Issued by NWS

Home | Current Version | Previous Version | Graphics & Text | Print | Product List | Glossary On
Versions: 1 2 3 4 5 6 7 8 9 10 11 12 13 14 15 16 17 18 19 20 21 22 23 24 25 26 27 28 29 30 31 32 33 34 35 36 37 38 39 40 41 42 43 44 45 46 47 48 49 50
000
ASUS45 KTFX 280519
RWRMT
MONTANA HOURLY WEATHER ROUNDUP
NATIONAL WEATHER SERVICE GREAT FALLS MT
1019 PM MST SAT DEC 27 2014

NOTE: "FAIR" INDICATES FEW OR NO CLOUDS BELOW 12000 FEET WITH NO
SIGNIFICANT WEATHER AND/OR OBSTRUCTIONS TO VISIBILITY.

* THESE STATIONS ARE NOT UNDER NWS QUALITY CONTROL. THEY DO NOT
   REPORT WEATHER SUCH AS PRECIPITATION OR FOG.

MTZ001>007-043-280600-
WEST OF THE DIVIDE
CITY           SKY/WX    TMP DP  RH WIND       PRES   REMARKS
KALISPELL      LGT SNOW  30  28  92 S8        29.83F VSB 1 1/2 WCI  22
MISSOULA       LGT SNOW  28  25  89 S20       29.89F VSB 2 1/2 WCI  15
BUTTE          CLOUDY    21  12  68 CALM      29.87F
MULLAN PASS    HVY SNOW  25  19  78 VRB5      29.73F VSB M1/4 WCI  19
* ESSEX        N/A       25  23  92 N/A        N/A
* HAMILTON APT PTCLDY    28  25  89 S16       29.90F WCI  16
* LIBBY APT    MOCLDY    27  25  92 CALM      29.84F
* LINCOLN      N/A       23  20  88 W3         N/A
* LOOKOUT PASS N/A       25  24  96 E4         N/A
* POLSON       N/A       27  26  96 N1         N/A
* RONAN APT    MOCLDY    30  28  92 SW5        N/A   WCI  25
* SEELEY LAKE  N/A       25  23  92 N/A        N/A
* THOMP F APT  CLOUDY    11   7  84 NE5G13     N/A   WCI   2
* YAAK HILL    N/A       31  28  89 N/A        N/A
$$

MTZ008-052>055-280600-
SOUTHWEST MONTANA
CITY           SKY/WX    TMP DP  RH WIND       PRES   REMARKS
BOZEMAN        CLOUDY    19  16  88 W3        29.90F
DILLON         CLOUDY    19  10  68 SW9       29.91F WCI   8
* W YELLOWSTON CLOUDY    12   8  84 NW1G10     N/A
* THREE FORKS  CLOUDY    27  23  85 SW10G25    N/A   WCI  18
* BOULDER HILL N/A       20  10  65 S19        N/A   WCI   5
* MONIDA PASS  N/A        9   7  91 SE25       N/A   WCI -12
* RAYNOLDS PAS N/A       12  -2  53 S19G25     N/A   WCI  -6
* WHITEHALL    N/A       27  13  55 SW15G24    N/A   WCI  15
* WISE RIVER   N/A       19  14  81 W9G17      N/A   WCI   8
$$

MTZ009>010-012-014-046-048-049-054-280600-
EAST SLOPES AND CENTRAL MONTANA
CITY           SKY/WX    TMP DP  RH WIND       PRES   REMARKS
CUT BANK       LGT SNOW  25  21  85 E3        29.79F VSB 3
GREAT FALLS    CLOUDY    28  21  75 S15       29.81F WCI  16
HELENA         CLOUDY    23  18  81 W3        29.87F
MALMSTROM AFB  LGT SNOW  30  23  75 S23G28    29.84F WCI  17
* CONRAD       CLOUDY    28  23  81 S8         N/A   WCI  20
* DEARBORN     N/A       31  19  61 S17G22     N/A   WCI  20
* EAST GLACIER N/A       24  20  85 W9G14      N/A   WCI  14
* MONARCH      N/A       24  13  63 S12G18     N/A   WCI  13
* PENDROY      N/A       24  21  88 SE6        N/A   WCI  17
* SWEET GRASS  N/A       24  21  88 N/A        N/A
* WHITE SULPH  N/A       23  15  71 S20G29     N/A   WCI   8
$$

MTZ011-013-016-021-035-040-045-047-050-051-280600-
NORTH CENTRAL MONTANA
CITY           SKY/WX    TMP DP  RH WIND       PRES   REMARKS
HAVRE          MOCLDY    19  16  88 N3        29.86F
LEWISTOWN      CLOUDY    19  12  74 E7        29.84F WCI  10
* N BAR RANCH  PTCLDY    18  10  71 W8        29.86F WCI   8
* CHINOOK      PTCLDY    18  16  92 E3        29.89F
* CHESTER      N/A       19  16  88 N/A        N/A
* DENTON       N/A       20  11  68 S5         N/A   WCI  13
* JUDITH GAP   N/A       23  13  65 SW11       N/A   WCI  12
* LOMA         N/A       24  19  81 NE3        N/A
$$

MTZ017>020-022>027-061-062-280600-
NORTHEAST MONTANA
CITY           SKY/WX    TMP DP  RH WIND       PRES   REMARKS
GLASGOW        CLOUDY    25  18  75 NW3       29.92F
GLENDIVE       CLOUDY    19  18  96 S5        29.96S WCI  12
JORDAN         MOCLDY    21  19  92 CALM      29.91F
SIDNEY         CLOUDY    25  21  85 N7        30.00S WCI  17
WOLF POINT     CLOUDY    21  18  88 E13       29.97S WCI   8
* BEAVER HILL  N/A       19  15  84 S13        N/A   WCI   6
* CIRCLE       N/A       23  20  88 N/A        N/A
* LINDSAY DVD  N/A       24  19  81 SW10       N/A   WCI  14
* NAVAJO       N/A       13  11  92 E5         N/A   WCI   5
* PLENTYWOOD A PTCLDY    14  10  84 NE13      29.99F
* POPLAR APT   MOCLDY    18  14  84 NE16G22    N/A   WCI   3
* SACO         N/A       22  19  88 S2         N/A
$$

MTZ028>042-056>058-280600-
SOUTHCENTRAL AND SOUTHEAST MONTANA
CITY           SKY/WX    TMP DP  RH WIND       PRES   REMARKS
BAKER          MOCLDY    23  18  81 SW12      29.96S WCI  11
BILLINGS       MOCLDY    21  10  62 SW16      29.92F WCI   7
LIVINGSTON     LGT SNOW  25  14  63 SW36G49   29.86F WCI   7
MILES CITY     CLOUDY    25  18  75 SW6       29.95F WCI  18
* BIG TIMBER A MOCLDY    27  12  53 SW15G20   29.88S WCI  15
* FORSYTH APT  PTCLDY    27  16  63 SW6       29.95F WCI  20
* LAUREL APT   MOCLDY    19   9  65 N/A        N/A
* ROUNDUP APT  PTCLDY    23  12  63 S6         N/A   WCI  16
* ALZADA       N/A       16  10  77 W4         N/A
* HYSHAM       N/A       22  10  60 SW4        N/A
* LAME DEER    N/A      N/A N/A N/A N/A        N/A
* REED POINT   N/A       16  11  81 N/A        N/A
* ROSCOE HILL  N/A       25   0  33 SW4G11     N/A
$$

REGIONAL REPORTS...DAKOTAS
CITY           SKY/WX    TMP DP  RH WIND       PRES   REMARKS
WILLISTON      LGT SNOW  19  14  81 NE8       30.01S WCI   9
DICKINSON      CLOUDY    21  16  81 S5        29.95S WCI  14
BEACH          CLOUDY    19  18  96 SW8       29.96S WCI   9
CROSBY         LGT SNOW  14  10  84 NE10      30.06R WCI   1
WATFORD CITY   CLOUDY    21  19  92 NE5       29.98R WCI  14
BISMARCK       CLOUDY    14  12  92 CALM      30.05R
GRAND FORKS    LGT SNOW  10   7  88 N15       30.11R WCI  -7
FARGO          CLOUDY    25  19  78 W5        30.04S WCI  19
BUFFALO SD     CLEAR     21  16  81 W9        29.90S WCI  11
RAPID CITY     CLEAR     12   5  73 W6        30.02S WCI   2
$$

REGIONAL REPORTS...WYOMING/IDAHO/WASHINGTON
CITY           SKY/WX    TMP DP  RH WIND       PRES   REMARKS
GILLETTE       PTCLDY    16   5  62 SW18      29.95F
SHERIDAN       PTCLDY     9   0  66 N5        29.93F
CODY           PTCLDY    27   7  42 W13G24    29.91S WCI  16
YELLOWSTONE LA MOCLDY    10   7  88 CALM      29.98F
SALMON         CLOUDY    19  16  88 N7        30.01F WCI  10
MULLAN PASS    HVY SNOW  25  19  78 VRB5      29.73S VSB M1/4 WCI  19
SAND POINT     LGT SNOW  32  32 100 CALM      29.85F VSB 3
SPOKANE        LGT SNOW  34  32  92 SW14      29.85R WCI  24
$$

REGIONAL REPORTS...ALBERTA
CITY           SKY/WX    TMP DP  RH WIND       PRES   REMARKS
CALGARY        CLOUDY    19  14  81 NE7       29.86R WCI  10
LETHBRIDGE     LGT SNOW  28  27  96 SW12      29.81S VSB 3    WCI  18
MEDICINE HAT   CLEAR     16  12  84 E6        29.87S WCI   7
EDMONTON       LGT SNOW  14  10  84 N10       30.01R VSB 2 1/2 WCI   1
WATERTON GATE  N/A       27  19  72 SW12       N/A   WCI  16
CARDSTON       N/A       25  25 100 SE1        N/A
MILK RIVER     N/A       23  21  92 NW2        N/A
$$

REGIONAL REPORTS...SASKATCHEWAN
CITY           SKY/WX    TMP DP  RH WIND       PRES   REMARKS
SWIFT CURRENT  FOG       16  14  92 E10       29.92F WCI   4
REGINA         MOCLDY     1  -4  79 E6        30.09R WCI -11
VAL MARIE      N/A        3   1  91 NE3        N/A
ASSINIBOIA     N/A       12   9  88 E10        N/A   WCI  -1

$$




USA.gov is the U.S. government's official web portal to all federal, state and local government web resources and services.